| Date | Time | Temp. (oF) | Dew Point (oF) | Rel. Hum. (%) | Press. (in.) | Wind Dir. | Wind Speed (mph) | Hourly Rainfall (in.) |
|
|---|---|---|---|---|---|---|---|---|---|
| 1 | 11/10 | 00:00 | 43 | 42 | 100 | 29.88 | SW | 4 | 0.00 |
| 2 | 11/09 | 23:00 | 43 | 42 | 100 | 29.85 | W | 6 | 0.00 |
| 3 | 11/09 | 22:00 | 43 | 42 | 100 | 29.83 | SE | 3 | 0.01 |
| 4 | 11/09 | 21:00 | 43 | 42 | 100 | 29.84 | WNW | 5 | 0.01 |
| 5 | 11/09 | 20:00 | 43 | 42 | 100 | 29.84 | ENE | 3 | 0.01 |
| 6 | 11/09 | 19:00 | 42 | 41 | 100 | 29.88 | NE | 4 | 0.07 |
| 7 | 11/09 | 18:00 | 42 | 41 | 100 | 29.92 | NNE | 4 | 0.10 |
| 8 | 11/09 | 17:00 | 42 | 41 | 99 | 29.95 | NNE | 3 | 0.13 |
| 9 | 11/09 | 16:00 | 41 | 40 | 98 | 30.00 | ENE | 2 | 0.22 |
| 10 | 11/09 | 15:00 | 43 | 41 | 95 | 30.02 | WNW | 5 | 0.16 |
| 11 | 11/09 | 14:00 | 45 | 42 | 90 | 30.03 | N | 1 | 0.02 |
| 12 | 11/09 | 13:00 | 45 | 40 | 83 | 30.05 | E | 5 | 0.00 |
| 13 | 11/09 | 12:00 | 45 | 39 | 80 | 30.09 | ESE | 8 | 0.00 |
| 14 | 11/09 | 11:00 | 43 | 37 | 81 | 30.15 | E | 3 | 0.00 |
| 15 | 11/09 | 10:00 | 41 | 34 | 79 | 30.19 | E | 4 | 0.00 |
| 16 | 11/09 | 09:00 | 39 | 34 | 83 | 30.24 | ENE | 4 | 0.01 |
| 17 | 11/09 | 08:00 | 39 | 32 | 76 | 30.24 | E | 2 | 0.00 |
| 18 | 11/09 | 07:00 | 37 | 31 | 79 | 30.26 | ESE | 1 | 0.00 |
| 19 | 11/09 | 06:00 | 36 | 31 | 82 | 30.26 | NE | 4 | 0.00 |
| 20 | 11/09 | 05:00 | 34 | 29 | 85 | 30.30 | N | 2 | 0.00 |
| 21 | 11/09 | 04:00 | 33 | 29 | 88 | 30.30 | ENE | 1 | 0.00 |
| 22 | 11/09 | 03:00 | 35 | 30 | 82 | 30.30 | NNE | 2 | 0.00 |
| 23 | 11/09 | 02:00 | 35 | 30 | 83 | 30.32 | E | 1 | 0.00 |
| 24 | 11/09 | 01:00 | 37 | 30 | 77 | 30.32 | NNW | 3 | 0.00 |